Date,TemperatureHighF,TemperatureAvgF,TemperatureLowF,DewpointHighF,DewpointAvgF,DewpointLowF,HumidityHigh,HumidityAvg,HumidityLow,PressureMaxIn,PressureMinIn,WindSpeedMaxMPH,WindSpeedAvgMPH,GustSpeedMaxMPH,PrecipitationSumIn
2014-1-1,50.6,47.0,42.3,48.9,45.2,40.2,95,93,90,29.61,29.06,12,7,27,0.66
2014-1-2,50.6,46.6,41.1,47.6,44.1,39.8,96,91,80,29.48,29.09,10,3,18,0.22
2014-1-3,50.3,46.2,43.4,48.9,42.8,37.4,95,88,76,29.56,29.28,10,4,17,0.19
2014-1-4,47.4,44.1,36.1,45.7,42.2,34.8,95,93,85,29.56,29.17,11,4,25,0.44
2014-1-5,53.1,40.6,32.0,52.0,39.3,31.0,96,95,92,29.67,29.34,9,4,27,0.19
2014-1-6,53.2,51.1,46.5,52.1,47.4,44.6,96,87,78,29.51,29.32,9,6,22,0.43
2014-1-7,51.7,49.8,44.7,47.5,45.9,42.9,94,86,80,29.80,29.51,9,5,26,0.28
2014-1-8,52.1,48.2,44.5,50.7,46.2,43.1,95,93,86,30.00,29.70,6,3,14,0.05
2014-1-9,52.6,47.4,37.8,50.8,43.0,35.7,95,85,73,29.95,29.55,7,4,17,0.02
2014-1-10,50.0,42.0,35.1,45.5,39.9,33.5,96,92,82,30.00,29.94,4,2,7,0.05
2014-1-11,48.6,41.4,29.8,45.1,38.8,28.3,99,90,72,30.28,29.92,3,1,11,0.05
2014-1-12,48.8,38.6,28.5,47.7,37.1,27.3,97,95,90,30.27,29.68,6,2,17,0.09
2014-1-13,48.0,42.4,39.3,44.3,40.6,38.0,96,93,81,29.79,29.56,6,2,13,0.28
2014-1-14,44.9,39.1,33.5,41.3,36.5,32.2,96,91,77,29.76,29.56,7,2,11,0.09
2014-1-15,50.9,48.4,42.5,49.2,47.0,41.2,100,95,92,29.65,29.31,7,3,12,0.09
2014-1-16,49.7,45.8,42.5,48.0,43.9,40.6,96,93,85,29.34,29.16,8,4,18,0.37
2014-1-17,46.6,43.8,41.9,44.7,42.3,40.8,97,94,89,29.37,29.16,7,3,11,0.34
2014-1-18,50.1,46.6,44.9,46.2,44.2,42.8,97,91,85,29.37,29.22,5,3,10,0.13
2014-1-19,48.1,42.2,32.8,44.3,39.0,31.3,95,88,70,29.61,29.24,4,1,7,0.00
2014-1-20,47.5,38.0,31.2,43.2,36.1,29.9,97,93,83,29.90,29.61,1,0,2,0.00
2014-1-21,45.7,38.7,32.7,42.7,36.7,31.4,97,93,83,29.91,29.70,5,2,12,0.01
2014-1-22,50.9,45.1,42.6,47.4,43.4,40.8,97,94,83,29.90,29.64,4,1,8,0.20
2014-1-23,47.2,40.3,35.1,43.4,36.9,33.9,100,88,72,30.01,29.85,7,2,13,0.02
2014-1-24,45.8,40.9,34.4,43.9,38.8,32.6,100,92,85,30.01,29.89,5,2,10,0.13
2014-1-25,52.3,46.2,40.1,48.7,43.0,34.3,97,89,75,30.01,29.78,13,3,20,0.07
2014-1-26,48.9,40.9,36.0,47.8,38.3,33.9,96,90,81,30.03,29.27,9,4,16,0.22
2014-1-27,46.8,39.3,34.6,40.7,36.5,32.1,93,90,78,29.36,29.17,8,3,10,0.04
2014-1-28,49.1,42.3,39.7,43.4,39.6,37.8,94,90,77,29.19,29.04,6,4,16,0.06
2014-1-29,41.3,39.0,37.1,39.7,37.8,35.8,96,95,94,29.52,29.19,3,1,6,0.33
2014-1-30,41.8,39.2,37.5,39.8,37.9,36.2,96,95,92,29.70,29.52,1,0,4,0.05
2014-1-31,48.2,40.9,33.3,47.1,39.5,32.0,97,95,90,29.70,29.10,11,4,18,0.34
2014-2-1,48.9,43.9,38.3,47.8,39.7,36.2,96,85,69,29.48,29.04,8,4,19,0.20
2014-2-2,50.6,44.4,40.8,40.8,39.1,37.5,92,82,66,29.89,29.48,6,3,12,0.00
2014-2-3,46.3,43.2,40.6,41.2,39.2,36.8,93,86,74,29.85,29.46,8,3,16,0.00
2014-2-4,47.5,43.4,38.6,41.6,39.4,35.8,93,86,74,29.59,29.13,10,5,19,0.25
2014-2-5,48.2,45.4,41.9,45.1,41.3,39.3,94,86,77,29.29,28.89,13,8,24,0.38
2014-2-6,48.7,45.2,41.9,47.5,42.2,38.9,97,89,80,29.44,28.97,7,4,15,0.26
2014-2-7,48.7,45.1,38.7,47.5,41.4,36.6,96,87,68,29.47,28.89,9,4,18,0.20
2014-2-8,47.6,45.0,42.0,45.6,40.9,35.8,95,86,72,29.15,28.86,11,7,21,0.37
2014-2-9,48.8,43.4,39.0,39.3,36.4,31.9,88,76,59,29.30,28.93,10,5,17,0.02
2014-2-10,49.5,41.2,35.9,44.2,38.3,33.5,96,90,77,29.59,29.24,6,1,9,0.06
2014-2-11,46.1,40.3,35.2,43.1,36.5,32.7,94,86,67,29.62,29.25,11,4,19,0.17
2014-2-12,46.2,41.9,35.7,43.5,38.1,32.5,94,86,78,29.65,29.14,14,6,24,0.47
2014-2-13,40.4,39.8,39.0,34.3,33.8,33.4,81,79,77,29.32,29.29,6,4,12,0.00
2014-2-14,51.9,50.0,48.0,49.6,46.1,41.0,94,86,76,29.00,28.82,14,11,33,0.48
2014-2-15,50.6,45.6,40.0,42.8,40.1,37.3,91,81,69,29.62,28.89,11,6,26,0.06
2014-2-16,51.5,41.6,33.9,40.0,37.0,32.1,95,84,59,29.81,29.63,5,2,11,0.00
2014-2-17,49.9,44.8,36.9,45.5,41.9,35.3,96,90,77,29.82,29.72,7,4,22,0.07
2014-2-18,48.7,45.0,37.7,47.1,43.6,36.4,95,94,93,29.85,29.76,5,2,9,0.21
2014-2-19,48.9,44.2,36.8,46.7,42.6,35.5,100,94,88,29.93,29.80,5,1,13,0.02
2014-2-20,54.2,47.9,39.8,51.0,45.9,37.7,96,93,77,29.79,29.49,8,4,14,0.09
2014-2-21,51.4,42.8,35.2,40.1,37.3,33.4,94,82,57,29.69,29.58,6,2,10,0.00
2014-2-22,53.4,45.1,38.1,42.7,39.2,35.8,92,80,58,29.92,29.67,6,3,12,0.00
2014-2-23,52.9,49.8,47.0,46.9,45.2,42.0,91,84,78,29.89,29.79,9,6,31,0.01
2014-2-24,57.3,49.8,44.6,47.8,45.1,41.8,92,84,70,29.79,29.55,11,4,15,0.02
2014-2-25,51.4,45.6,41.3,47.2,42.6,38.9,93,89,77,29.73,29.48,9,4,18,0.32
2014-2-26,53.6,45.0,37.0,43.5,39.0,35.7,96,81,55,30.03,29.73,5,2,12,0.00
2014-2-27,52.6,43.7,36.7,42.6,38.9,34.5,93,84,59,29.94,29.64,8,3,13,0.16
2014-2-28,50.9,41.3,35.2,43.3,38.8,33.4,100,91,69,29.66,29.34,3,1,7,0.31
2014-3-1,49.0,38.9,31.7,41.1,35.0,30.4,96,87,60,29.66,29.58,2,0,4,0.00
2014-3-2,49.4,42.8,33.7,44.4,40.5,31.9,95,91,80,29.59,29.01,10,4,19,0.39
2014-3-3,46.5,40.6,35.1,42.4,38.7,33.8,100,93,82,29.44,29.01,6,1,6,0.06
2014-3-4,51.1,40.5,31.3,42.7,36.9,30.0,97,88,67,29.90,29.44,4,1,12,0.00
2014-3-5,54.9,42.4,30.8,43.5,37.3,29.5,97,83,62,30.29,29.90,3,1,6,0.01
2014-3-6,56.4,46.7,38.8,47.2,42.5,37.2,96,86,69,30.30,30.19,7,3,13,0.00
2014-3-7,60.3,49.2,41.8,51.8,45.1,39.6,94,86,64,30.38,30.12,6,2,15,0.00
2014-3-8,59.1,50.5,43.1,47.1,43.2,40.4,95,77,54,30.39,30.17,8,3,13,0.00
2014-3-9,66.1,53.2,44.2,49.8,43.1,40.1,87,70,45,30.24,30.16,7,2,12,0.00
2014-3-10,57.5,46.4,37.6,49.6,41.6,35.5,95,84,74,30.51,30.22,3,1,9,0.00
2014-3-11,52.5,45.7,40.6,46.5,41.9,38.5,92,86,78,30.56,30.49,3,2,9,0.00
2014-3-12,60.5,45.9,35.9,48.2,40.9,34.3,95,84,58,30.54,30.42,2,0,8,0.00
2014-3-13,62.4,47.1,36.7,48.6,41.6,34.8,96,83,46,30.45,30.38,2,0,5,0.01
2014-3-14,63.8,47.2,32.9,48.5,40.7,31.4,96,80,45,30.44,30.28,5,1,8,0.00
2014-3-15,65.9,52.0,43.7,45.1,42.2,39.1,92,72,38,30.40,30.30,6,2,9,0.00
2014-3-16,68.0,53.8,41.2,47.0,43.3,39.2,95,71,39,30.31,30.19,5,2,9,0.00
2014-3-17,57.7,48.9,40.0,46.9,43.6,38.1,98,83,65,30.24,30.10,4,1,8,0.00
2014-3-18,57.1,52.1,45.3,47.5,44.6,41.4,87,76,64,30.19,29.96,9,4,14,0.00
2014-3-19,62.2,49.8,43.5,48.0,43.1,40.6,92,79,54,30.25,30.09,6,2,12,0.00
2014-3-20,55.1,49.6,44.1,47.4,45.3,41.8,93,85,68,30.09,29.68,8,4,19,0.10
2014-3-21,55.3,47.1,42.4,42.9,40.3,37.6,93,78,54,29.78,29.51,8,4,13,0.13
2014-3-22,53.9,43.2,37.1,41.2,37.6,33.1,95,82,48,29.62,29.48,6,2,12,0.15
2014-3-23,50.3,41.5,33.5,39.6,35.0,31.4,94,79,57,29.97,29.62,6,2,12,0.01
2014-3-24,51.7,41.1,29.6,40.2,34.4,27.7,94,78,54,30.00,29.78,7,2,11,0.01
2014-3-25,46.1,43.0,36.5,43.8,40.5,34.3,95,91,81,30.03,29.70,4,1,10,0.22
2014-3-26,48.6,38.8,32.8,39.8,35.2,31.3,96,88,61,30.12,29.96,4,0,6,0.11
2014-3-27,50.0,39.7,32.8,41.6,36.5,31.5,100,89,62,29.96,29.87,4,1,9,0.16
2014-3-28,54.9,45.5,36.0,45.2,39.5,34.7,96,81,53,30.00,29.93,4,1,8,0.00
2014-3-29,67.0,53.9,42.3,45.2,41.1,35.1,93,66,32,29.99,29.90,5,2,12,0.00
2014-3-30,66.8,54.8,41.1,48.5,42.9,39.0,94,67,41,29.94,29.89,5,1,9,0.00
2014-3-31,62.9,55.4,49.4,50.2,47.1,44.2,89,74,58,29.94,29.87,5,1,7,0.01
2014-4-1,63.2,52.6,45.3,54.6,48.8,43.8,96,87,67,29.89,29.76,2,0,4,0.09
2014-4-2,66.0,56.4,47.2,53.3,49.6,45.0,93,79,58,29.76,29.55,3,1,6,0.01
2014-4-3,64.9,55.0,50.0,54.9,50.4,47.8,93,85,65,29.61,29.50,3,1,5,0.00
2014-4-4,59.8,54.1,46.1,50.3,47.6,43.1,92,79,61,29.90,29.61,4,2,9,0.00
2014-4-5,57.2,51.0,42.2,52.7,48.0,40.4,96,90,79,29.96,29.90,6,3,14,0.00
2014-4-6,60.0,55.2,53.8,55.2,53.0,52.2,95,93,84,29.95,29.90,7,4,18,0.02
2014-4-7,56.7,53.6,44.9,53.9,51.3,42.7,95,92,88,29.94,29.67,6,4,16,0.01
2014-4-8,57.4,48.4,40.8,42.9,40.1,36.5,95,75,49,30.31,29.85,9,4,14,0.00
2014-4-9,62.8,50.8,38.1,47.5,42.8,36.4,96,76,54,30.33,30.26,4,1,8,0.00
2014-4-10,61.0,51.9,41.8,44.7,42.7,39.5,93,73,51,30.27,30.14,4,1,9,0.00
2014-4-11,62.3,53.3,46.4,45.0,42.0,38.2,83,67,45,30.21,30.15,2,0,6,0.00
2014-4-12,59.1,50.3,41.8,44.8,42.0,38.4,88,74,54,30.17,30.06,7,2,14,0.00
2014-4-13,62.4,53.1,46.3,45.8,43.3,40.1,93,71,48,30.24,30.13,5,2,9,0.00
2014-4-14,62.4,51.8,41.5,42.4,39.7,35.8,91,66,40,30.38,30.19,3,1,7,0.00
2014-4-15,60.0,48.0,36.0,40.7,37.7,33.6,94,70,43,30.45,30.38,3,1,8,0.00
2014-4-16,63.8,48.7,35.2,43.0,35.9,25.6,94,65,30,30.43,30.26,4,1,8,0.00
2014-4-17,65.7,52.8,40.3,47.9,41.9,35.5,90,69,39,30.26,30.05,5,2,12,0.00
2014-4-18,56.0,48.8,39.6,42.9,37.7,34.1,89,67,46,30.17,30.09,3,1,10,0.01
2014-4-19,56.9,47.1,37.1,41.4,37.6,33.9,89,71,51,30.16,29.97,4,2,9,0.00
2014-4-20,54.3,48.7,44.6,51.9,46.1,40.0,98,91,83,29.97,29.61,5,1,9,0.22
2014-4-21,66.7,51.4,38.6,56.1,47.6,37.3,97,88,54,29.74,29.66,2,0,4,0.38
2014-4-22,58.8,52.3,48.5,53.0,49.2,46.3,96,90,71,29.96,29.67,5,2,12,0.31
2014-4-23,59.4,52.1,43.3,51.3,47.5,42.0,97,85,60,30.12,29.97,7,2,14,0.05
2014-4-24,64.0,55.2,49.5,50.3,48.1,44.6,96,79,52,30.14,30.01,3,0,6,0.01
2014-4-25,51.7,49.1,46.4,49.3,47.3,45.0,96,94,86,30.01,29.81,3,1,7,0.43
2014-4-26,58.6,51.3,46.0,50.9,46.4,43.1,98,84,64,29.81,29.61,11,4,17,0.09
2014-4-27,56.3,50.7,47.2,50.1,47.3,43.5,96,89,75,29.76,29.56,3,1,7,0.22
2014-4-28,62.2,53.2,47.8,52.5,49.1,45.9,94,86,63,29.94,29.76,3,1,5,0.01
2014-4-29,60.8,52.2,45.0,55.7,49.2,43.4,96,90,72,29.94,29.87,3,0,7,0.34
2014-4-30,67.6,53.3,41.8,54.3,46.7,40.2,97,81,48,29.95,29.88,5,1,8,0.01
2014-5-1,55.7,51.9,49.1,53.6,50.1,46.5,95,94,90,29.97,29.81,3,0,4,0.32
2014-5-2,56.5,49.5,43.2,49.4,45.4,38.2,95,86,71,30.41,29.97,3,1,5,0.04
2014-5-3,58.6,47.2,33.8,39.9,36.5,31.9,94,69,43,30.43,30.32,2,0,4,0.00
2014-5-4,62.4,50.3,38.8,46.7,41.7,36.4,92,74,52,30.33,30.10,5,1,8,0.00
2014-5-5,65.2,53.3,38.3,48.7,43.4,36.5,95,72,47,30.10,29.73,6,2,12,0.00
2014-5-6,67.1,57.9,51.7,52.8,48.3,44.2,91,72,44,29.75,29.69,6,2,12,0.01
2014-5-7,62.5,55.3,50.8,51.4,47.5,44.0,88,76,58,29.90,29.74,8,4,17,0.01
2014-5-8,59.0,54.4,51.2,56.6,50.7,44.4,94,88,75,29.90,29.68,8,3,14,0.14
2014-5-9,64.9,57.1,50.8,51.3,46.1,40.6,92,69,43,29.97,29.81,10,5,23,0.01
2014-5-10,62.1,54.1,50.4,56.0,49.7,43.5,95,85,68,29.92,29.56,10,5,19,0.25
2014-5-11,59.9,52.2,47.8,45.7,42.7,39.0,83,71,48,29.79,29.57,9,6,19,0.00
2014-5-12,62.8,53.3,46.9,48.1,44.1,40.3,91,72,48,29.95,29.79,6,3,13,0.02
2014-5-13,61.0,52.6,44.7,50.1,45.7,42.4,93,78,55,30.33,29.95,2,1,4,0.01
2014-5-14,67.0,55.8,43.5,47.2,43.4,38.0,93,66,38,30.56,30.33,3,1,5,0.00
2014-5-15,69.9,56.9,44.3,53.8,47.3,41.6,92,72,46,30.62,30.56,4,1,8,0.00
2014-5-16,71.7,59.8,44.8,54.2,48.7,42.4,93,69,47,30.59,30.36,2,0,6,0.00
2014-5-17,74.2,62.2,48.9,57.6,52.8,45.8,89,73,53,30.36,30.10,3,0,4,0.00
2014-5-18,75.5,63.0,50.8,56.2,52.0,48.6,94,70,46,30.09,29.73,5,2,10,0.00
2014-5-19,78.2,66.4,53.4,57.1,52.6,48.5,88,64,40,29.73,29.59,5,1,13,0.00
2014-5-20,66.6,60.1,52.0,56.9,54.0,50.0,93,81,66,29.86,29.59,7,2,10,0.09
2014-5-21,66.1,56.8,46.2,54.2,50.2,44.7,96,80,58,29.88,29.57,3,1,7,0.00
2014-5-22,62.0,56.5,52.3,55.2,52.3,50.3,95,86,67,29.61,29.52,9,2,12,0.51
2014-5-23,60.7,54.3,50.9,52.7,48.9,46.2,93,82,69,29.79,29.60,8,3,20,0.09
2014-5-24,59.5,53.6,50.7,52.8,49.3,46.6,95,86,64,29.93,29.76,6,2,13,0.26
2014-5-25,64.5,55.7,48.1,50.3,46.0,42.8,92,72,49,30.13,29.93,7,3,13,0.00
2014-5-26,53.5,50.4,45.0,51.9,48.5,42.5,95,93,85,30.15,30.03,1,0,2,0.57
2014-5-27,55.2,52.5,49.4,53.4,50.8,47.9,96,94,90,30.03,29.94,2,0,5,0.17
2014-5-28,56.6,52.7,48.0,54.5,51.1,46.6,96,95,91,29.96,29.87,2,1,6,0.09
2014-5-29,64.5,58.3,54.0,56.2,54.1,52.6,96,87,70,30.11,29.90,3,1,9,0.01
2014-5-30,60.6,56.9,51.0,53.9,51.3,46.6,92,82,66,30.30,30.11,3,1,5,0.01
2014-5-31,67.5,56.7,44.1,53.4,48.7,42.2,96,76,52,30.31,30.25,2,0,4,0.00
2014-6-1,71.4,62.0,50.4,55.9,51.0,46.2,94,70,43,30.25,30.12,2,0,4,0.00
2014-6-2,68.9,61.1,55.8,55.8,53.7,51.7,89,77,58,30.14,30.02,3,1,9,0.00
2014-6-3,66.8,57.8,53.0,58.4,53.4,50.3,94,86,67,30.02,29.80,5,1,9,0.13
2014-6-4,59.3,53.3,44.6,52.7,49.2,42.8,94,86,63,29.80,29.63,7,2,15,0.21
2014-6-5,67.0,56.5,45.0,53.0,47.4,43.1,95,74,44,29.96,29.72,6,3,15,0.05
2014-6-6,75.3,60.9,43.8,56.4,49.7,41.5,94,69,43,29.97,29.85,4,1,10,0.00
2014-6-7,72.9,63.1,56.9,63.1,56.0,51.4,95,79,56,30.02,29.74,4,1,9,0.17
2014-6-8,77.6,65.2,53.7,58.4,54.0,51.6,93,70,44,30.11,30.02,5,1,10,0.00
2014-6-9,79.2,65.8,55.8,64.8,57.3,52.3,88,75,49,30.08,29.95,5,1,10,0.01
2014-6-10,72.3,63.0,53.4,57.0,52.5,49.2,92,70,48,30.20,29.96,6,2,12,0.00
2014-6-11,73.1,62.1,50.3,55.1,51.7,48.1,94,71,46,30.39,30.20,4,1,10,0.00
2014-6-12,77.5,64.9,50.8,56.0,53.0,48.6,93,68,44,30.40,30.30,2,0,4,0.00
2014-6-13,78.3,67.2,52.7,58.7,54.9,50.0,92,67,44,30.31,30.19,2,0,3,0.00
2014-6-14,72.4,64.3,58.6,63.6,58.4,52.1,95,82,64,30.34,30.20,3,1,7,0.65
2014-6-15,64.2,59.7,56.4,55.9,52.6,48.7,89,77,69,30.38,30.34,3,1,8,0.00
2014-6-16,63.6,58.6,53.4,53.9,51.2,47.8,89,77,68,30.38,30.33,3,1,6,0.00
2014-6-17,71.8,61.7,55.3,53.1,49.7,44.2,82,66,42,30.37,30.31,3,2,8,0.00
2014-6-18,72.5,62.6,56.0,58.2,54.2,51.6,93,76,53,30.35,30.25,2,1,6,0.01
2014-6-19,70.9,61.0,51.5,61.0,55.2,49.3,94,82,69,30.26,30.19,3,1,7,0.00
2014-6-20,74.2,60.7,49.2,56.2,51.3,47.0,93,73,46,30.24,30.13,4,1,9,0.00
2014-6-21,75.2,65.1,54.3,57.1,52.8,48.7,84,66,50,30.16,30.08,3,1,6,0.00
2014-6-22,78.0,66.1,53.2,58.6,54.4,50.6,93,69,41,30.21,30.12,4,1,10,0.00
2014-6-23,78.8,67.2,55.0,58.6,53.8,49.3,86,64,42,30.23,30.13,3,1,8,0.00
2014-6-24,77.3,66.0,57.1,60.6,56.5,53.9,93,74,45,30.16,30.03,4,1,5,0.00
2014-6-25,71.6,62.3,51.8,55.0,48.7,44.1,88,63,39,30.10,30.01,3,1,6,0.00
2014-6-26,70.8,60.4,50.1,57.2,50.6,46.5,93,72,46,30.05,29.92,5,1,7,0.13
2014-6-27,72.7,62.2,55.7,58.6,54.8,51.7,95,78,51,29.95,29.86,6,2,19,0.00
2014-6-28,67.6,58.0,52.1,57.1,54.0,49.9,94,87,59,29.90,29.79,4,1,9,0.29
2014-6-29,68.0,59.0,53.2,53.7,51.2,47.7,94,77,50,30.03,29.83,2,1,4,0.00
2014-6-30,66.9,58.0,49.9,59.7,53.4,47.6,94,85,60,30.09,30.03,3,0,6,0.37
2014-7-1,73.5,61.7,49.2,56.2,51.1,47.8,96,71,45,30.20,30.08,3,1,9,0.00
2014-7-2,75.9,63.0,48.4,58.3,52.3,46.0,93,71,44,30.23,30.17,4,1,6,0.00
2014-7-3,79.6,66.8,53.0,59.1,52.1,44.2,92,62,33,30.22,30.00,6,2,11,0.00
2014-7-4,80.0,66.2,55.5,61.2,57.0,50.7,92,74,44,30.00,29.62,7,3,14,0.01
2014-7-5,68.2,62.4,59.6,61.5,59.1,56.6,95,89,75,29.67,29.51,6,2,14,0.13
2014-7-6,70.8,61.6,54.8,56.6,52.8,49.5,93,74,52,29.88,29.63,5,2,9,0.00
2014-7-7,69.6,59.6,49.4,58.3,52.3,47.2,92,78,54,30.01,29.88,5,1,8,0.02
2014-7-8,68.5,58.0,51.0,59.3,53.9,49.0,94,87,63,30.05,29.95,4,0,6,0.28
2014-7-9,73.1,61.8,51.3,58.1,53.8,49.9,96,77,50,30.12,30.04,3,1,5,0.00
2014-7-10,72.0,63.0,56.1,58.8,55.0,51.1,88,76,59,30.09,30.04,3,1,6,0.00
2014-7-11,68.0,60.8,52.6,60.5,55.9,50.6,94,84,74,30.09,30.02,1,0,2,0.02
2014-7-12,79.4,68.6,60.2,63.0,60.2,57.1,93,76,52,30.03,29.85,3,1,7,0.00
2014-7-13,76.5,66.9,58.7,64.7,59.8,50.4,95,79,60,29.89,29.73,4,1,8,0.05
2014-7-14,75.6,63.6,51.0,59.4,53.3,47.6,89,71,45,30.00,29.89,5,2,10,0.00
2014-7-15,78.8,68.9,61.3,60.6,58.4,55.4,91,71,47,30.15,30.00,4,1,7,0.00
2014-7-16,78.5,67.7,54.8,63.4,58.4,52.2,92,74,53,30.17,30.12,3,1,8,0.00
2014-7-17,83.4,71.7,60.5,65.9,61.8,58.0,93,73,49,30.18,30.01,3,1,11,0.00
2014-7-18,83.8,73.1,62.8,70.2,64.1,60.2,95,75,49,30.06,29.84,5,2,9,0.25
2014-7-19,81.4,70.9,65.4,69.0,64.5,61.8,93,81,60,29.87,29.71,6,2,11,0.05
2014-7-20,77.6,68.8,62.0,66.1,62.4,59.3,93,81,58,29.95,29.76,2,0,6,0.00
2014-7-21,79.1,69.1,60.0,65.1,61.1,57.1,90,77,56,30.16,29.95,3,0,8,0.00
2014-7-22,82.5,70.2,58.3,63.5,60.1,55.7,92,72,49,30.22,30.16,3,1,4,0.00
2014-7-23,84.0,71.0,58.7,66.4,60.8,56.0,92,72,47,30.21,30.03,3,1,8,0.00
2014-7-24,84.8,72.2,61.1,64.2,58.8,52.5,86,65,42,30.06,29.99,4,1,7,0.00
2014-7-25,81.3,67.3,60.7,66.5,61.4,56.4,92,82,50,30.05,29.99,3,0,5,0.35
2014-7-26,82.6,72.0,61.7,63.3,60.9,58.1,92,70,45,30.03,29.98,2,0,5,0.00
2014-7-27,78.1,69.3,62.7,60.3,57.3,52.4,86,67,46,30.07,29.98,2,0,4,0.00
2014-7-28,72.1,63.0,57.0,63.2,57.0,52.0,94,81,60,30.03,29.94,2,0,6,0.23
2014-7-29,78.7,68.6,59.3,59.3,57.1,54.1,90,69,45,30.04,29.94,2,0,4,0.00
2014-7-30,79.6,67.9,55.4,59.4,55.7,51.7,88,66,46,30.03,29.96,3,1,6,0.00
2014-7-31,78.4,67.1,55.7,61.3,57.7,53.1,92,73,49,30.00,29.88,4,1,8,0.00
2014-8-1,75.8,65.4,58.0,62.1,58.0,55.4,92,78,53,29.89,29.73,6,2,10,0.00
2014-8-2,72.6,64.7,59.6,64.1,58.1,51.4,92,80,61,29.73,29.59,7,2,17,0.03
2014-8-3,75.1,62.8,51.4,56.4,52.1,48.7,91,70,41,29.92,29.72,5,2,14,0.00
2014-8-4,75.5,64.2,55.2,56.6,53.7,51.8,90,70,46,30.08,29.91,4,1,8,0.00
2014-8-5,74.2,63.9,52.9,61.2,57.0,50.6,94,79,58,30.10,29.97,6,2,12,0.00
2014-8-6,78.8,67.7,61.0,63.9,59.9,56.4,95,78,54,29.96,29.84,6,2,14,0.33
2014-8-7,79.3,67.2,56.0,61.5,57.1,53.7,94,72,43,29.98,29.91,3,0,8,0.00
2014-8-8,74.6,65.2,58.4,63.0,58.9,55.3,94,81,60,29.94,29.63,5,1,7,0.49
2014-8-9,73.4,63.2,55.4,59.6,55.8,52.0,96,78,53,29.81,29.63,6,2,12,0.04
2014-8-10,69.1,62.1,57.7,65.5,56.8,50.0,96,83,60,29.75,29.31,9,4,18,0.47
2014-8-11,69.9,59.7,53.1,58.9,52.9,49.4,94,79,56,29.81,29.68,8,3,12,0.40
2014-8-12,66.7,58.1,51.8,55.9,52.2,50.1,94,82,58,29.81,29.71,6,2,11,0.02
2014-8-13,70.9,61.7,51.8,58.6,53.4,49.3,93,76,57,29.80,29.66,5,2,13,0.01
2014-8-14,71.8,59.4,54.0,59.6,54.6,51.1,93,85,55,29.87,29.79,5,1,9,0.26
2014-8-15,68.1,58.6,50.7,57.5,53.2,48.7,94,83,63,30.16,29.87,3,1,7,0.00
2014-8-16,69.5,59.9,50.2,54.0,51.0,48.3,94,74,52,30.19,30.02,6,2,15,0.00
2014-8-17,68.0,60.3,55.2,58.4,51.7,44.8,88,74,53,30.02,29.76,7,3,16,0.02
2014-8-18,68.1,58.6,50.7,55.5,50.7,46.9,88,76,56,29.89,29.77,5,2,9,0.01
2014-8-19,65.1,55.6,48.6,51.9,47.0,44.8,89,74,49,30.02,29.88,5,2,12,0.02
2014-8-20,65.0,54.4,42.9,49.8,45.5,41.0,95,74,46,30.07,30.02,3,1,5,0.00
2014-8-21,65.3,54.8,43.0,50.5,47.1,41.0,94,77,55,30.07,29.90,6,2,12,0.00
2014-8-22,69.5,59.1,51.8,53.1,49.5,46.2,90,72,46,29.95,29.82,5,1,11,0.00
2014-8-23,66.1,56.0,46.9,48.9,46.3,43.3,90,71,47,30.09,29.95,4,1,9,0.00
2014-8-24,65.8,55.3,42.7,51.0,47.0,40.3,94,75,49,30.14,30.01,4,1,7,0.00
2014-8-25,62.7,58.7,54.1,61.2,56.6,49.2,96,93,81,30.01,29.56,113,15,124,0.68
2014-8-26,61.1,59.0,53.6,60.0,57.6,51.3,97,95,91,29.92,29.56,106,11,115,0.34
2014-8-27,64.8,57.9,48.7,59.2,54.5,47.3,96,89,73,29.99,29.87,95,7,115,0.01
2014-8-28,71.7,63.3,57.3,61.3,59.0,54.6,96,86,67,29.92,29.80,112,33,128,0.02
2014-8-29,69.8,61.5,55.0,59.1,56.2,53.3,94,83,64,29.95,29.91,6,3,17,0.00
2014-8-30,68.9,62.7,57.7,58.1,54.6,51.8,91,76,58,30.05,29.93,6,2,12,0.02
2014-8-31,70.7,61.2,53.9,56.4,53.4,51.3,92,77,55,30.14,30.03,4,1,9,0.00
2014-9-1,65.0,59.0,51.4,62.7,56.8,49.4,95,93,85,30.18,30.12,108,3,116,0.11
2014-9-2,71.3,61.0,53.8,59.0,55.8,52.4,96,84,59,30.24,30.18,111,5,114,0.00
2014-9-3,72.6,63.1,55.1,61.0,57.4,53.4,96,83,64,30.24,30.14,101,7,115,0.00
2014-9-4,69.8,63.5,57.4,61.0,58.5,55.0,94,84,72,30.16,30.03,3,1,4,0.00
2014-9-5,68.9,63.6,59.0,59.8,58.2,56.6,93,83,69,30.04,29.98,2,0,3,0.00
2014-9-6,71.0,63.7,58.1,60.4,58.1,55.8,92,82,62,29.99,29.94,2,0,3,0.00
2014-9-7,69.3,59.5,53.5,59.1,54.7,50.3,95,85,65,30.05,29.96,1,0,3,0.00
2014-9-8,71.1,58.7,47.3,56.1,51.2,45.7,96,78,50,30.15,30.05,1,0,3,0.00
2014-9-9,71.8,59.6,48.8,56.7,52.5,46.9,95,79,51,30.20,30.14,2,0,4,0.00
2014-9-10,69.4,57.8,48.0,55.6,51.3,46.2,95,80,57,30.20,30.14,3,1,7,0.00
2014-9-11,64.4,56.4,46.4,55.0,51.2,44.8,95,83,69,30.25,30.17,2,0,5,0.00
2014-9-12,71.6,61.1,53.5,59.3,54.2,51.0,93,79,54,30.30,30.22,3,1,7,0.00
2014-9-13,69.7,60.6,54.6,59.6,55.4,52.6,94,84,64,30.33,30.28,3,1,8,0.00
2014-9-14,70.3,60.3,52.8,58.7,54.6,50.2,93,82,63,30.31,30.11,4,1,8,0.00
2014-9-15,71.2,60.9,54.3,59.0,55.1,51.8,93,82,58,30.13,29.98,2,0,4,0.00
2014-9-16,75.8,63.4,54.3,63.4,58.5,52.0,95,85,62,30.01,29.91,2,1,8,0.00
2014-9-17,68.7,62.9,58.8,61.9,58.8,56.6,94,87,77,29.95,29.84,3,1,9,0.00
2014-9-18,77.9,66.1,58.7,66.1,60.6,56.7,94,83,63,29.84,29.77,99,11,117,0.00
2014-9-19,72.7,64.9,61.4,66.9,62.4,59.9,96,92,78,29.92,29.81,113,23,115,0.21
2014-9-20,68.1,62.8,59.1,63.4,60.2,55.7,96,91,83,30.13,29.92,113,19,115,0.00
2014-9-21,65.5,58.0,49.1,56.7,51.8,46.6,94,81,58,30.34,30.13,100,7,115,0.02
2014-9-22,65.5,52.8,41.4,51.2,46.7,39.8,96,81,56,30.35,30.25,1,0,3,0.00
2014-9-23,65.9,54.0,43.6,55.5,48.1,42.0,96,82,58,30.25,30.03,3,1,8,0.00
2014-9-24,65.3,55.6,46.5,55.9,49.9,43.4,95,82,57,30.09,29.93,98,17,116,0.06
2014-9-25,66.5,55.0,41.1,56.5,49.2,39.2,95,82,65,30.18,30.09,6,1,13,0.01
2014-9-26,68.6,61.9,57.1,60.6,56.9,54.1,93,84,66,30.32,30.16,105,6,116,0.00
2014-9-27,68.5,58.8,49.4,60.0,54.3,47.7,95,86,66,30.35,30.25,1,0,4,0.00
2014-9-28,74.4,63.0,54.8,62.7,57.7,53.0,96,84,62,30.25,30.09,3,0,5,0.00
2014-9-29,65.0,58.1,52.6,62.0,55.7,50.9,95,92,84,30.18,30.10,112,21,128,0.04
2014-9-30,72.3,61.7,56.8,60.8,57.3,54.6,95,86,62,30.25,30.18,108,19,122,0.00
2014-10-1,67.0,61.5,56.4,59.6,57.5,54.4,95,87,71,30.38,30.22,114,19,130,0.06
2014-10-2,70.1,60.7,54.8,60.9,56.6,52.8,95,87,70,30.41,30.31,10,1,10,0.00
2014-10-3,70.5,58.9,51.7,60.8,55.1,50.5,97,88,64,30.31,30.04,127,16,131,0.00
2014-10-4,62.8,54.7,42.5,59.0,52.8,41.1,95,93,83,30.15,29.83,114,50,126,0.23
2014-10-5,58.8,46.7,36.5,49.9,42.5,35.2,97,86,63,30.19,29.92,114,10,114,0.00
2014-10-6,54.8,50.9,43.2,52.5,48.1,40.8,96,90,74,29.91,29.48,124,54,129,0.31
2014-10-7,58.6,49.1,44.2,49.4,45.6,42.0,96,88,59,29.63,29.35,116,20,125,0.13
2014-10-8,62.3,52.6,42.2,56.9,49.6,40.5,97,90,73,29.63,29.34,106,27,116,0.06
2014-10-9,63.0,54.1,50.8,53.8,50.7,48.1,95,89,65,29.68,29.41,104,54,129,0.24
2014-10-10,63.7,53.5,46.3,55.8,50.5,44.4,95,90,73,29.87,29.68,112,14,125,0.01
2014-10-11,60.6,53.1,47.0,55.4,50.3,45.4,95,90,77,29.94,29.83,109,25,118,0.03
2014-10-12,56.9,49.6,41.4,52.2,47.3,39.5,95,92,83,29.94,29.61,119,47,123,0.31
2014-10-13,55.8,53.2,51.5,53.8,51.2,49.5,93,93,93,29.61,29.44,109,93,116,0.93
2014-10-14,54.4,53.6,52.9,52.4,51.6,50.9,93,93,93,29.76,29.52,115,93,116,0.06
2014-10-15,58.0,55.0,53.0,55.9,53.1,51.0,96,93,92,29.75,29.52,116,90,122,0.23
2014-10-16,62.0,56.6,50.9,59.0,54.4,48.9,95,92,87,29.67,29.52,126,88,131,0.07
2014-10-17,64.5,59.2,54.7,61.0,56.7,52.6,94,91,85,29.87,29.67,130,90,131,0.04
2014-10-18,66.7,63.0,60.4,61.8,59.9,58.4,94,90,83,29.93,29.78,103,94,127,0.01
2014-10-19,66.5,60.7,55.7,60.5,57.1,52.8,95,88,72,30.03,29.86,105,62,124,0.08
2014-10-20,62.5,56.1,51.3,54.2,51.9,49.3,94,86,72,30.06,29.88,114,20,122,0.00
2014-10-21,57.2,53.6,46.1,54.2,45.4,37.1,93,75,56,30.18,29.57,9,5,17,0.03
2014-10-22,56.6,49.3,41.4,47.9,43.2,37.2,90,80,66,30.32,30.18,5,2,14,0.00
2014-10-23,61.8,56.0,50.3,56.1,51.8,46.9,92,86,77,30.22,30.03,4,2,9,0.00
2014-10-24,61.9,58.0,51.3,58.4,55.7,48.8,95,92,87,30.03,29.91,3,1,5,0.03
2014-10-25,58.9,52.0,44.4,49.8,47.5,42.8,98,85,69,30.18,30.01,4,1,9,0.01
2014-10-26,59.1,55.3,53.0,51.5,49.1,47.2,85,80,71,30.19,30.15,4,2,10,0.00
2014-10-27,64.1,57.7,54.2,56.8,54.0,50.3,95,88,76,30.18,30.03,8,3,13,0.00
2014-10-28,64.5,57.9,53.7,57.3,54.6,51.7,95,89,72,30.04,29.88,6,3,13,0.01
2014-10-29,58.9,55.6,53.0,57.4,53.7,51.0,95,93,93,30.07,29.92,2,0,4,0.10
2014-10-30,63.4,58.6,54.5,60.3,56.4,52.5,95,93,88,30.09,30.05,3,1,8,0.01
2014-10-31,69.9,61.1,55.7,60.9,56.5,53.7,95,85,66,30.08,29.98,5,3,9,0.00
2014-11-1,64.7,58.4,53.7,58.2,53.5,48.6,93,84,65,30.03,29.86,7,3,13,0.01
2014-11-2,58.5,55.5,49.5,55.8,52.7,47.0,94,90,86,29.86,29.51,7,4,17,0.15
2014-11-3,49.9,44.5,40.9,48.1,42.9,39.3,98,89,91,29.51,29.21,4,2,9,0.31
2014-11-4,54.2,42.0,38.2,48.2,39.6,36.4,94,87,70,29.50,29.21,4,0,4,0.33
2014-11-5,49.1,42.1,35.9,46.4,40.2,34.3,95,93,89,29.84,29.50,3,1,5,0.02
2014-11-6,51.9,43.4,31.4,50.0,40.4,29.6,95,89,78,29.85,29.43,8,3,16,0.06
2014-11-7,55.2,50.7,45.1,53.2,47.6,42.6,95,89,73,29.58,29.22,9,4,18,0.17
2014-11-8,56.9,50.3,44.5,52.4,47.7,42.6,95,91,83,29.61,29.49,9,3,18,0.18
2014-11-9,54.6,47.1,41.9,50.3,44.4,40.1,94,90,76,29.69,29.56,3,1,5,0.00
2014-11-10,53.5,48.6,42.6,49.7,46.2,40.9,94,91,85,29.69,29.55,7,3,16,0.04
2014-11-11,55.7,52.1,49.6,50.4,48.7,46.5,95,88,78,29.55,29.33,8,3,12,0.10
2014-11-12,54.1,50.9,48.1,50.7,48.6,45.9,95,92,79,29.66,29.31,5,2,14,0.15
2014-11-13,55.5,52.9,49.2,52.5,50.3,47.5,95,91,86,29.67,29.56,6,3,16,0.02
2014-11-14,56.6,50.9,42.9,54.0,48.5,41.2,95,92,85,29.58,29.44,5,2,7,0.33
2014-11-15,55.2,47.6,44.5,53.1,45.7,42.6,94,93,91,29.56,29.47,2,0,2,0.01
2014-11-16,51.0,47.9,45.2,49.3,46.1,43.3,95,93,92,29.55,29.48,2,0,4,0.05
2014-11-17,47.8,46.2,44.9,46.0,44.4,43.0,95,93,93,29.72,29.46,3,1,5,0.22
2014-11-18,54.6,48.2,43.2,50.4,46.0,41.3,94,92,82,29.96,29.71,2,1,5,0.00
2014-11-19,51.9,46.2,41.1,48.8,44.3,39.2,95,93,88,30.23,29.96,2,0,4,0.00
2014-11-20,49.9,44.0,38.9,46.6,42.0,37.1,95,93,86,30.29,30.22,2,0,4,0.00
2014-11-21,50.4,44.2,39.2,48.5,42.5,37.3,95,94,93,30.22,29.90,2,1,4,0.03
2014-11-22,56.8,54.9,50.3,54.8,52.9,48.4,93,93,93,29.99,29.87,4,2,10,0.05
2014-11-23,55.4,46.7,37.7,53.4,44.8,36.1,94,93,93,30.21,29.97,2,0,6,0.91
2014-11-24,43.5,35.9,31.2,42.0,34.4,29.7,100,94,93,30.37,30.21,1,0,2,0.01
2014-11-25,45.7,40.4,31.3,44.4,38.7,29.8,95,94,93,30.33,29.99,3,1,5,0.26
2014-11-26,48.1,46.9,45.2,46.5,45.2,43.3,94,94,93,29.99,29.73,1,0,2,0.16
2014-11-27,48.9,47.3,45.6,47.3,45.6,43.7,95,94,93,29.73,29.58,2,0,4,0.04
2014-11-28,51.8,49.5,46.2,49.8,47.8,44.3,95,94,93,29.73,29.58,3,1,8,0.01
2014-11-29,57.0,49.1,42.8,53.5,47.1,41.2,95,93,85,29.93,29.72,2,0,4,0.01
2014-11-30,51.2,46.0,40.6,49.3,44.1,38.7,96,93,89,29.99,29.92,2,0,5,0.00
2014-12-1,48.9,44.4,42.4,47.7,41.5,40.2,98,90,86,29.97,29.93,3,1,9,0.00
2014-12-2,44.9,43.5,42.5,43.2,40.9,37.8,95,90,82,30.23,29.95,3,1,5,0.04
2014-12-3,47.0,42.0,37.0,41.5,38.6,34.8,93,88,76,30.27,30.11,3,1,9,0.00
2014-12-4,43.0,39.0,37.5,40.3,36.4,34.8,95,90,79,30.11,29.97,4,1,7,0.03
2014-12-5,42.3,38.1,33.7,40.1,36.4,32.2,95,93,89,30.28,30.02,3,1,5,0.01
2014-12-6,42.7,34.4,29.3,37.0,32.1,27.8,95,91,75,30.42,30.25,4,1,6,0.01
2014-12-7,53.4,43.3,33.4,47.5,39.4,30.8,94,86,68,30.25,30.03,7,3,18,0.01
2014-12-8,44.9,38.2,33.0,37.7,34.3,30.7,92,86,72,30.34,30.06,5,2,10,0.01
2014-12-9,51.8,38.7,29.4,50.1,36.3,27.9,95,91,84,30.42,29.94,2,0,3,0.02
2014-12-10,52.3,44.6,40.3,50.6,39.6,36.4,94,83,67,30.06,29.90,6,2,13,0.02
2014-12-11,48.1,44.7,40.9,43.2,40.0,37.3,92,84,70,29.92,29.58,8,4,15,0.00
2014-12-12,49.7,43.3,33.8,48.3,40.8,32.0,95,91,82,29.71,29.29,5,1,14,0.34
2014-12-13,43.8,34.4,30.4,37.6,32.3,28.9,100,92,77,30.00,29.70,1,0,3,0.01
2014-12-14,48.8,40.4,29.7,47.0,38.0,28.2,94,91,83,29.99,29.78,5,3,15,0.01
2014-12-15,47.8,42.7,36.9,45.9,40.4,35.3,95,91,85,29.94,29.79,5,0,11,0.03
2014-12-16,44.1,38.3,32.8,41.7,36.1,31.0,95,92,84,30.02,29.81,0,0,0,0.09
2014-12-17,53.9,51.1,43.6,51.7,49.2,42.0,95,93,90,29.82,29.65,0,0,0,0.15
2014-12-18,54.9,53.8,53.1,52.6,51.6,50.9,95,92,89,29.89,29.82,5,0,8,0.00
2014-12-19,53.9,47.6,39.1,51.8,43.2,36.4,94,85,66,30.26,29.81,6,1,8,0.04
2014-12-20,49.7,42.7,38.0,41.7,38.8,36.2,94,86,72,30.48,30.25,0,0,0,0.00
2014-12-21,52.5,46.9,38.1,49.7,43.8,36.5,100,89,81,30.49,30.18,0,0,0,0.00
2014-12-22,55.0,53.2,50.9,51.7,49.3,45.6,94,87,81,30.18,30.08,0,0,0,0.00
2014-12-23,55.8,51.9,50.0,50.1,46.8,44.7,89,83,78,30.11,29.97,0,0,0,0.01
2014-12-24,52.0,45.9,36.8,50.2,41.7,33.4,94,85,71,30.29,29.93,0,0,0,0.02
2014-12-25,47.5,39.9,34.6,39.9,36.1,32.5,93,87,72,30.53,30.28,0,0,0,0.00
2014-12-26,47.7,37.3,31.0,45.8,35.6,29.5,95,94,91,30.52,29.55,0,0,0,0.20
2014-12-27,47.1,37.2,33.4,45.2,34.2,31.2,94,89,80,30.01,29.53,0,0,0,0.02
2014-12-28,43.2,33.5,27.2,33.7,30.1,25.5,94,88,69,30.71,30.01,0,0,0,0.01
2014-12-29,41.9,31.2,25.8,36.7,29.1,24.3,94,92,82,30.82,30.70,0,0,0,0.00
2014-12-30,38.4,30.6,25.8,36.8,29.0,24.3,100,94,92,30.81,30.63,0,0,0,0.01
2014-12-31,44.5,36.6,28.8,40.9,34.5,27.1,95,92,86,30.63,30.50,0,0,0,0.01
2015-1-1,53.0,47.1,39.1,51.3,45.2,37.0,94,93,91,30.51,30.14,0,0,0,0.02
2015-1-2,53.8,45.8,37.1,52.1,40.5,34.2,95,82,63,30.58,30.14,0,0,0,0.02